Regional Weather Roundup
Issued by NWS Jackson, KY

Home | Current Version | Previous Version | Graphics & Text | Print | Product List | Glossary On
Versions: 1 2 3 4 5 6 7 8 9 10 11 12 13 14 15 16 17 18 19 20 21 22 23 24 25 26 27 28 29 30 31 32 33 34 35 36 37 38 39 40 41 42 43 44 45 46 47 48 49 50
000
ASUS43 KJKL 250010
RWRJKL

EAST KENTUCKY HOURLY WEATHER ROUNDUP
NATIONAL WEATHER SERVICE JACKSON KY
800 PM EDT THU JUL 24 2014

NOTE: "FAIR" INDICATES FEW OR NO CLOUDS BELOW 12,000 FEET WITH
NO SIGNIFICANT WEATHER AND/OR OBSTRUCTIONS TO VISIBILITY.

* THESE REPORTS ARE NOT UNDER NWS QUALITY CONTROL AND MAY NOT
  REPORT WEATHER SUCH AS PRECIPITATION AND FOG.

KYZ079-080-083-085-087-088-110-112-115-119-120-250100
...EASTERN KENTUCKY...

CITY           SKY/WX    TMP DP  RH WIND       PRES   REMARKS
JACKSON        MOCLDY    67  62  84 CALM      30.03F
6HR MIN TEMP:  64; 6HR MAX TEMP:  69;

LONDON         CLEAR     71  61  70 E6        30.03F
6HR MIN TEMP:  69; 6HR MAX TEMP:  72;

SOMERSET*      CLEAR     72  59  64 E5        30.03S
MONTICELLO*    CLEAR     73  63  71 NE5       30.03S
6HR MIN TEMP:  72; 6HR MAX TEMP:  77;

MIDDLESBORO*   CLOUDY    68  63  84 N8        30.03R
6HR MIN TEMP:  68; 6HR MAX TEMP:  80;

HARLAN APT*    CLOUDY    64  63  94 MISG      30.03F
BLACK MTN*       N/A     57  57 100 N7          N/A
PIKEVILLE APT* CLOUDY    64  63  94 CALM      30.03F
BIG SANDY*     CLOUDY    68  64  86 CALM      30.02F
6HR MIN TEMP:  63; 6HR MAX TEMP:  69;

MOREHEAD APT*    N/A     73  57  56 CALM      30.03S
$$

KYZ035-036-041-042-044-050-067-078-099-250100
...CENTRAL KENTUCKY...

CITY           SKY/WX    TMP DP  RH WIND       PRES   REMARKS
MT STERLING*   CLEAR     72  57  60 NE3       30.03S
FLEMING/MASON* PTCLDY    72  57  60 CALM      30.02S
DANVILLE*      MOCLDY    72  61  68 E5        30.03R
RICHMOND*      MOSUNNY   70  59  68 E5        30.02R
LEXINGTON      PTCLDY    74  55  51 NE8       30.02S
6HR MIN TEMP:  73; 6HR MAX TEMP:  79;

FRANKFORT      MOCLDY    76  54  46 NE6       30.01S
6HR MIN TEMP:  73; 6HR MAX TEMP:  79;

$$

KYZ091>093-OHZ055-061-077-WVZ005-015-034-035-042-250100
...SOUTHERN OHIO/WEST VIRGINIA...

CITY           SKY/WX    TMP DP  RH WIND       PRES   REMARKS
COVINGTON      PTCLDY    74  51  44 N9        30.03R
COLUMBUS       PTCLDY    74  53  48 NE9       30.00S
DAYTON         PTCLDY    71  53  52 N9        30.06R
WILMINGTON     CLEAR     71  55  56 N6        30.03R
HUNTINGTON     PTCLDY    70  63  78 S5        29.99S
CHARLESTON     MOCLDY    70  63  78 CALM      30.00S
PINEVILLE*     CLOUDY    68  65  89 MISG      30.07F
BECKLEY        CLOUDY    62  60  93 N7        30.05S FOG
BLUEFIELD      CLOUDY    66  61  84 NW5       30.05R
$$

VAZ002-007-008-TNZ017-027-036-066-071-250100
...SOUTHWEST VIRGINIA/EAST TENNESSEE...

CITY           SKY/WX    TMP DP  RH WIND       PRES   REMARKS
WISE*          FOG       61  61 100 NW6       30.08S VSB 1/4
JONESVILLE*    CLEAR     68  64  88 CALM      30.04S
ABINGDON*      PTCLDY    69  65  86 N10G18    30.01S
BRISTOL        MOCLDY    71  62  73 N12       30.00R
KNOXVILLE      MOCLDY    74  65  73 N12       29.97R
OAK RIDGE      PTCLDY    75  64  68 NE9       30.00R
CROSSVILLE     PTCLDY    73  64  73 N10       30.03R
NASHVILLE      MOSUNNY   82  61  48 N8        29.97S
$$

...KEY TO REMARKS...
VSB - VISIBILITY IN MILES
WCI - WIND CHILL INDEX
HX  - HEAT INDEX

$$



USA.gov is the U.S. government's official web portal to all federal, state and local government web resources and services.